Change the Weather History Date:

Friday, July 11, 2014

  Actual Average Record
Temperature  
Mean Temperature 60 °F -  
Max Temperature 78 °F 79 °F 93 °F (1948)
Min Temperature 43 °F 53 °F 36 °F (1978)
Degree Days  
Heating Degree Days 4    
Growing Degree Days 10 (Base 50)    
Moisture  
Dew Point 55 °F    
Average Humidity 75    
Maximum Humidity 100    
Minimum Humidity 51    
Precipitation  
Precipitation 0.00 in - - ()
Sea Level Pressure  
Sea Level Pressure 30.19 in    
Wind  
Wind Speed 3 mph (SSW)    
Max Wind Speed 12 mph    
Max Gust Speed 16 mph    
Visibility 10 miles    
Events Fog    
Averages and records for this station are not official NWS values.
T = Trace of Precipitation, MM = Missing Value Source: NWS Daily Summary

Daily Weather History Graph

Daily Weather History Graph

Search for Another Location

Airport or City:

Trip Planner

Search our weather history database for the weather conditions in past years. The results will help you decide how hot, cold, wet, or windy it might be!

Date:

Astronomy

Jul. 11, 2014 Rise Set
Actual Time 6:08 AM EDT 9:25 PM EDT
Civil Twilight 5:32 AM EDT 10:01 PM EDT
Nautical Twilight 4:46 AM EDT 10:47 PM EDT
Astronomical Twilight 3:49 AM EDT 11:44 PM EDT
Moon 8:32 PM EDT (7/11) 5:22 AM EDT (7/11)
Length of Visible Light 16h 28m
Length of Day
15h 17m
Waxing Gibbous, 99% of the Moon is Illuminated
Jul 11
Waxing Gibbous
Jul 12
Full
Jul 18
Last Quarter
Jul 26
New
Aug 3
First Quarter

Hourly Weather History & Observations

Time (EDT) Temp. Windchill Dew Point Humidity Pressure Visibility Wind Dir Wind Speed Gust Speed Precip Events Conditions
12:15 AM 50.2 °F - 50.0 °F 99% 30.20 in 10.0 mi Calm Calm - N/A   Clear
12:34 AM 49.5 °F - 49.5 °F 100% 30.20 in 10.0 mi Calm Calm - N/A   Clear
12:54 AM 48.9 °F - 48.9 °F 100% 30.19 in 4.0 mi Calm Calm - N/A   Clear
1:15 AM 48.4 °F - 48.2 °F 99% 30.20 in 10.0 mi Calm Calm - N/A   Clear
1:34 AM 47.7 °F - 47.7 °F 100% 30.20 in 7.0 mi West 3.5 mph - N/A   Clear
1:54 AM 47.5 °F - 47.5 °F 100% 30.20 in 10.0 mi Calm Calm - N/A   Clear
2:15 AM 46.6 °F - 46.6 °F 100% 30.21 in 10.0 mi Calm Calm - N/A   Clear
2:34 AM 46.9 °F - 46.9 °F 100% 30.21 in 10.0 mi Calm Calm - N/A   Clear
2:54 AM 46.8 °F - 46.4 °F 99% 30.21 in 10.0 mi Calm Calm - N/A   Clear
3:15 AM 45.3 °F - 45.1 °F 99% 30.20 in 10.0 mi Calm Calm - N/A   Clear
3:54 AM 45.1 °F - 45.0 °F 99% 30.20 in 10.0 mi Calm Calm - N/A   Clear
4:15 AM 43.7 °F - 43.7 °F 100% 30.21 in 10.0 mi Calm Calm - N/A   Clear
4:34 AM 44.2 °F - 44.2 °F 100% 30.21 in 10.0 mi Calm Calm - N/A   Clear
4:54 AM 44.6 °F - 44.6 °F 100% 30.21 in 10.0 mi Calm Calm - N/A   Clear
5:14 AM 44.2 °F - 44.2 °F 100% 30.21 in 10.0 mi Calm Calm - N/A   Clear
5:34 AM 44.2 °F - 44.2 °F 100% 30.21 in 10.0 mi Calm Calm - N/A   Clear
5:55 AM 43.7 °F - 43.7 °F 100% 30.21 in 0.5 mi Calm Calm - N/A Fog Fog
6:14 AM 43.7 °F - 43.7 °F 100% 30.21 in 0.8 mi Calm Calm - N/A   Mostly Cloudy
6:34 AM 43.9 °F 42.3 °F 43.9 °F 100% 30.21 in 0.8 mi WNW 3.5 mph - N/A   Mist
6:55 AM 46.2 °F - 45.3 °F 97% 30.21 in 10.0 mi Calm Calm - N/A   Clear
7:14 AM 47.8 °F - 46.6 °F 95% 30.21 in 10.0 mi Calm Calm - N/A   Clear
7:34 AM 50.5 °F - 49.3 °F 95% 30.21 in 10.0 mi Calm Calm - N/A   Clear
7:55 AM 54.7 °F - 52.2 °F 91% 30.22 in 10.0 mi Calm Calm - N/A   Clear
8:14 AM 58.1 °F - 54.9 °F 89% 30.22 in 10.0 mi Calm Calm - N/A   Clear
8:34 AM 63.0 °F - 55.4 °F 76% 30.22 in 10.0 mi South 5.8 mph - N/A   Clear
8:55 AM 64.9 °F - 55.6 °F 72% 30.23 in 10.0 mi SSW 6.9 mph - N/A   Clear
9:14 AM 66.0 °F - 55.9 °F 70% 30.23 in 10.0 mi SW 9.2 mph - N/A   Scattered Clouds
9:34 AM 67.1 °F - 55.8 °F 67% 30.23 in 10.0 mi SSW 8.1 mph - N/A   Scattered Clouds
9:55 AM 68.9 °F - 56.7 °F 65% 30.23 in 10.0 mi SSW 10.4 mph - N/A   Clear
10:14 AM 69.1 °F - 56.5 °F 64% 30.22 in 10.0 mi SW 10.4 mph - N/A   Clear
10:34 AM 70.2 °F - 56.8 °F 63% 30.22 in 10.0 mi SSW 9.2 mph - N/A   Clear
10:55 AM 72.0 °F - 58.1 °F 62% 30.22 in 10.0 mi WSW 6.9 mph - N/A   Scattered Clouds
11:14 AM 72.3 °F - 57.2 °F 59% 30.21 in 10.0 mi SSW 8.1 mph - N/A   Scattered Clouds
11:34 AM 73.4 °F - 57.0 °F 56% 30.21 in 10.0 mi SW 9.2 mph - N/A   Clear
11:55 AM 74.1 °F - 57.6 °F 56% 30.21 in 10.0 mi SSW 8.1 mph - N/A   Mostly Cloudy
12:14 PM 74.5 °F - 57.6 °F 55% 30.21 in 10.0 mi SW 8.1 mph - N/A   Mostly Cloudy
12:35 PM 73.8 °F - 57.0 °F 56% 30.21 in 10.0 mi SSW 5.8 mph - N/A   Scattered Clouds
12:55 PM 75.0 °F - 57.9 °F 55% 30.21 in 10.0 mi SW 10.4 mph - N/A   Mostly Cloudy
1:14 PM 74.5 °F - 57.9 °F 56% 30.20 in 10.0 mi WSW 6.9 mph - N/A   Overcast
1:35 PM 76.5 °F - 59.0 °F 55% 30.19 in 10.0 mi SSW 8.1 mph - N/A   Scattered Clouds
1:55 PM 75.7 °F - 58.5 °F 55% 30.19 in 10.0 mi SSW 8.1 mph - N/A   Clear
2:14 PM 77.5 °F - 59.0 °F 53% 30.19 in 10.0 mi SSW 11.5 mph 16.1 mph N/A   Scattered Clouds
2:35 PM 77.0 °F - 59.2 °F 54% 30.18 in 10.0 mi SW 9.2 mph - N/A   Mostly Cloudy
2:54 PM 75.4 °F - 58.8 °F 56% 30.18 in 10.0 mi SSW 6.9 mph - N/A   Mostly Cloudy
3:14 PM 75.9 °F - 59.4 °F 56% 30.18 in 10.0 mi SW 10.4 mph - N/A   Overcast
3:35 PM 75.4 °F - 59.0 °F 57% 30.17 in 10.0 mi SSW 10.4 mph - N/A   Mostly Cloudy
3:54 PM 77.7 °F - 60.3 °F 55% 30.17 in 10.0 mi South 9.2 mph - N/A   Mostly Cloudy
4:14 PM 76.8 °F - 59.5 °F 55% 30.17 in 10.0 mi South 8.1 mph - N/A   Mostly Cloudy
4:35 PM 76.6 °F - 58.8 °F 54% 30.16 in 10.0 mi SW 8.1 mph - N/A   Scattered Clouds
4:54 PM 78.4 °F - 59.0 °F 51% 30.15 in 10.0 mi SW 10.4 mph - N/A   Scattered Clouds
5:15 PM 77.5 °F - 59.0 °F 53% 30.14 in 10.0 mi South 11.5 mph - N/A   Scattered Clouds
5:34 PM 76.3 °F - 58.3 °F 54% 30.14 in 10.0 mi SSW 10.4 mph - N/A   Scattered Clouds
5:54 PM 76.1 °F - 58.8 °F 55% 30.13 in 10.0 mi South 9.2 mph - N/A   Scattered Clouds
6:14 PM 74.8 °F - 59.2 °F 58% 30.13 in 10.0 mi South 8.1 mph - N/A   Scattered Clouds
6:34 PM 75.2 °F - 59.4 °F 58% 30.12 in 10.0 mi SSW 6.9 mph - N/A   Clear
6:55 PM 75.2 °F - 59.4 °F 58% 30.12 in 10.0 mi South 10.4 mph - N/A   Scattered Clouds
7:14 PM 74.3 °F - 59.7 °F 60% 30.13 in 10.0 mi South 8.1 mph - N/A   Clear
7:34 PM 73.4 °F - 59.5 °F 62% 30.13 in 10.0 mi South 9.2 mph - N/A   Scattered Clouds
7:55 PM 72.9 °F - 59.4 °F 62% 30.13 in 10.0 mi South 5.8 mph - N/A   Overcast
8:14 PM 72.5 °F - 59.7 °F 64% 30.14 in 10.0 mi SSW 6.9 mph - N/A   Overcast
8:34 PM 72.0 °F - 59.9 °F 66% 30.14 in 10.0 mi SW 8.1 mph - N/A   Mostly Cloudy
8:55 PM 70.5 °F - 59.9 °F 69% 30.15 in 10.0 mi WSW 8.1 mph - N/A   Scattered Clouds
9:14 PM 69.1 °F - 59.9 °F 72% 30.15 in 10.0 mi SW 6.9 mph - N/A   Scattered Clouds
9:34 PM 68.4 °F - 60.1 °F 75% 30.15 in 10.0 mi SW 3.5 mph - N/A   Scattered Clouds
9:55 PM 67.8 °F - 59.5 °F 75% 30.16 in 10.0 mi SSW 3.5 mph - N/A   Mostly Cloudy
10:14 PM 66.0 °F - 59.0 °F 78% 30.16 in 10.0 mi SW 3.5 mph - N/A   Mostly Cloudy
10:34 PM 65.7 °F - 59.0 °F 79% 30.16 in 10.0 mi Calm Calm - N/A   Overcast
10:55 PM 66.9 °F - 59.2 °F 76% 30.16 in 10.0 mi South 3.5 mph - N/A   Overcast
11:14 PM 67.6 °F - 58.8 °F 73% 30.15 in 10.0 mi South 4.6 mph - N/A   Overcast
11:34 PM 67.3 °F - 59.0 °F 75% 30.15 in 10.0 mi South 3.5 mph - N/A   Overcast
11:55 PM 67.1 °F - 58.8 °F 75% 30.15 in 10.0 mi South 3.5 mph - N/A   Overcast